{"data":{"norad_id":65590,"intl_designator":"2025-206B","name":"COSMOS 2596 (708K)","alt_names":[],"object_type":"PAYLOAD","status":"ACTIVE","operator":null,"country":"CIS","launch_date":"2025-09-13","launch_site_code":"PLMSC","launch_vehicle":null,"mission":null,"orbit_class":"UNKNOWN","rcs_meters":null,"size_class":null,"mass_kg":null,"dimensions":null,"purposes":["nav"],"wikipedia_slug":null,"has_3d_model":false,"image_url":null,"decayed_at":null,"tle_current":{"epoch":"2026-05-20T12:51:28.157184Z","epoch_age_seconds":457421,"freshness":"STALE","line1":"1 65590U 25206B   26140.53574256 -.00000038  00000+0  00000+0 0  9990","line2":"2 65590  64.6521 315.9473 0011199 315.4946 223.7566  2.13100430  5321","mean_motion":2.1310043,"eccentricity":0.0011199,"inclination_deg":64.6521,"raan_deg":315.9473,"arg_perigee_deg":315.4946,"mean_anomaly_deg":223.7566,"bstar":0,"rev_number":532,"period_min":675.73772610407,"perigee_km":19101.446136037,"apogee_km":19158.579289764,"semimajor_km":25508.149712901,"source":"CELESTRAK","updated_at":"2026-05-25T13:38:23.897674Z"}}}